Left ArrowRight Arrow

39.14045, -121.61691

Hourly Observations for June 14, 2024

Temp ( °F °C ) Dew Point ( °F °C ) Humidity (%) Winds ( mph kmh ) Pressure ( in mb ) Visibility ( mi km ) Precip ( " mm )
12:53 am 00:53 Clear 65 18.3 50 10 58 58 SSE 13 20 29.92 1013 10 16 0.00 0.00
1:53 am 01:53 Clear 62 16.7 49 9.4 62 62 S 7 11 29.93 1014 10 16 0.00 0.00
2:53 am 02:53 Clear 59 15 48 8.9 67 67 SSE 7 11 29.93 1014 10 16 0.00 0.00
3:53 am 03:53 Clear 59 15 48 8.9 67 67 SSE 9 15 29.93 1014 10 16 0.00 0.00
4:53 am 04:53 Clear 58 14.4 47 8.3 67 67 S 7 11 29.95 1014 10 16 0.00 0.00
5:53 am 05:53 Sunny 58 14.4 48 8.9 70 70 Calm 29.97 1015 10 16 0.00 0.00
6:53 am 06:53 Sunny 59 15 48 8.9 67 67 S 7 11 29.98 1015 10 16 0.00 0.00
7:53 am 07:53 Sunny 63 17.2 48 8.9 58 58 SSE 8 13 29.99 1016 10 16 0.00 0.00
8:53 am 08:53 Sunny 66 18.9 48 8.9 52 52 ESE 8 13 29.99 1016 10 16 0.00 0.00
9:53 am 09:53 Sunny 71 21.7 49 9.4 45 45 SSE 9 15 29.99 1016 10 16 0.00 0.00
10:53 am 10:53 Sunny 73 22.8 51 10.6 46 46 S 6 9 29.99 1016 10 16 0.00 0.00
11:53 am 11:53 Sunny 78 25.6 53 11.7 42 42 SSE 8 13 29.98 1015 10 16 0.00 0.00
12:53 pm 12:53 Sunny 80 26.7 53 11.7 39 39 SSE 8 13 29.97 1015 10 16 0.00 0.00
1:53 pm 13:53 Sunny 85 29.4 55 12.8 36 36 S 8 13 29.95 1014 10 16 0.00 0.00
2:53 pm 14:53 Sunny 87 30.6 54 12.2 32 32 SSW 10 17 29.93 1014 10 16 0.00 0.00
3:53 pm 15:53 Sunny 91 32.8 58 14.4 33 33 SSE 12 19 29.90 1013 10 16 0.00 0.00
4:53 pm 16:53 Sunny 92 33.3 53 11.7 27 27 SSW 14 22 29.88 1012 10 16 0.00 0.00
5:53 pm 17:53 Sunny 89 31.7 48 8.9 24 24 S 14 22 29.87 1012 10 16 0.00 0.00
6:53 pm 18:53 Sunny 88 31.1 52 11.1 29 29 SSE 10 17 29.86 1011 10 16 0.00 0.00
7:53 pm 19:53 Sunny 86 30 52 11.1 31 31 SSE 13 20 29.87 1011 10 16 0.00 0.00
8:53 pm 20:53 Clear 82 27.8 51 10.6 34 34 SSE 10 17 29.88 1012 10 16 0.00 0.00
9:53 pm 21:53 Clear 78 25.6 48 8.9 35 35 SSE 13 20 29.90 1013 10 16 0.00 0.00
10:53 pm 22:53 Clear 73 22.8 44 6.7 35 35 SSE 13 20 29.91 1013 10 16 0.00 0.00
11:53 pm 23:53 Clear 69 20.6 43 6.1 39 39 SSE 14 22 29.92 1013 10 16 0.00 0.00

Powered by Vaisala Xweather